Overview Statistics Trail Chart Weather Telemetry Raw packets
 

This is the latest recevied weather packets stored in our database for station/object SALIDA. If no packets are shown the sender has not sent any weather packets the latest 10 day(s).

<< 1 2 3 4 5 >>
Time Temp. Humidity Pressure Rain* Wind** Luminosity Snow
1788553622 29.44° C 29% 1001.3 hPa 0 mm - - -
1788552722 29.44° C 29% 1001.5 hPa 0 mm - - -
1788551822 28.89° C 29% 1001.6 hPa 0 mm - - -
1788550923 28.89° C 30% 1001.9 hPa 0 mm - - -
1788550022 28.33° C 30% 1002 hPa 0 mm - - -
1788549122 27.22° C 31% 1002.1 hPa 0 mm - - -
1788548222 26.67° C 31% 1002.4 hPa 0 mm - - -
1788547322 27.22° C 32% 1002.4 hPa 0 mm - - -
1788546422 27.78° C 32% 1002.6 hPa 0 mm - - -
1788545522 26.67° C 33% 1003 hPa 0 mm - - -
1788544627 27.22° C 33% 1003.4 hPa 0 mm - - -
1788543722 26.11° C 35% 1003.7 hPa 0 mm - - -
1788541922 26.11° C 34% 1003.9 hPa 0 mm - - -
1788541022 25.56° C 35% 1003.8 hPa 0 mm - - -
1788540122 25° C 36% 1004.1 hPa 0 mm - - -
1788539222 23.89° C 37% 1004 hPa 0 mm - - -
1788538322 22.78° C 38% 1004.1 hPa 0 mm - - -
1788537422 21.67° C 40% 1004.6 hPa 0 mm - - -
1788536522 20.56° C 41% 1004.8 hPa 0 mm - - -
1788535622 19.44° C 43% 1004.9 hPa 0 mm - - -
1788534723 17.78° C 45% 1005 hPa 0 mm - - -
1788533822 16.67° C 47% 1005.3 hPa 0 mm - - -
1788532022 14.44° C 51% 1005.5 hPa 0 mm - - -
1788531123 12.78° C 53% 1005.5 hPa 0 mm - - -
1788530222 11.67° C 55% 1005.7 hPa 0 mm - - -

* Rain latest hour (hover to see other rain measurements)
** Current wind speed in m/s (hover to see current wind gust speed)